Tracking 29594 objects as of 20-Sep-2024
HD Live streaming from Space Station
objects crossing your sky now

TITAN 3C TRANSTAGE R/B

Track TITAN 3C TRANSTAGE R/B now!


NORAD ID: 3956
Int'l Code: 1969-046F
Perigee: 6,887.1 km
Apogee: 121,744.4 km
Inclination: 15.7 °
Period: 3,117.2 minutes
Semi major axis: 70686 km
RCS: 6.4225 m2 (large)
Launch date: May 23, 1969
Source: United States (US)
Launch site: AIR FORCE EASTERN TEST RANGE (AFETR)

Note: This is a ROCKET BODY
Your satellite tracking list
Your tracking list is empty




NASA's NSSDC Master Catalog

Two Line Element Set (TLE):
1  3956U 69046F   24264.00331042 -.00000303  00000-0  00000+0 0  9995
2  3956  15.7364  22.3173 8124381 268.6485   1.1579  0.46195104 59215
Source of the keplerian elements: AFSPC